Temp
24 24 22 23 24 25 29 29 32 30 30 30 30 28 25 24 26 22 21 22 21 21 21 21 22 21 21 22 22 21 22 21 21 22 21 21 21 21 21 21 21 21 21 21 21 21 21 22 21
24 23 23 23 25 27 29 31 30 30 29 30 29 27 25 23 23 20 19 21 22 21 22 22 22 22 22 22 22 21 21 21 21 22 21 21 21 21 21 22 21 21 21 21 21 21 21 22 22
24 24 23 24 26 28 29 31 31 32 32 31 30 30 26 22 22 20 22 21 22 22 22 22 22 22 22 22 22 21 21 21 21 22 21 22 21 21 21 21 21 21 21 21 21 21 21 22 23
25 23 24 25 31 32 32 32 32 31 30 30 29 26 26 24 23 23 21 22 22 21 22 22 22 22 22 22 21 21 21 21 22 22 21 21 21 21 21 21 21 21 21 21 21 21 21 22 23
23 21 23 25 32 34 34 34 34 30 29 29 28 26 25 25 24 23 22 22 22 22 22 21 21 22 22 22 21 21 21 22 21 22 21 21 21 21 21 21 21 21 21 21 21 21 21 22 23
22 22 25 28 32 34 33 36 33 31 29 29 27 26 24 25 23 23 22 23 23 23 22 21 22 22 22 21 21 21 21 21 21 21 22 21 21 21 21 21 21 21 21 21 21 21 22 22 23
23 22 24 30 32 32 34 35 32 31 29 29 28 25 25 25 24 24 23 24 24 23 22 22 22 21 21 21 22 22 22 21 21 21 22 22 22 22 22 21 21 21 21 21 21 22 22 22 23
21 23 25 29 31 31 35 34 33 27 25 30 29 26 25 27 27 24 24 24 23 23 22 22 22 21 22 22 21 22 22 22 22 22 22 24 23 22 22 22 22 22 21 21 21 21 22 22 22
23 23 26 27 30 33 34 33 32 31 29 30 31 28 28 28 28 25 25 24 24 23 23 23 22 23 23 23 22 22 24 23 23 23 24 24 23 22 23 23 23 22 22 21 21 21 21 22 22
23 23 27 31 30 33 34 34 34 32 31 28 29 29 28 28 28 27 26 25 24 24 24 24 24 23 23 23 24 24 24 24 25 24 24 24 24 23 23 23 23 22 21 21 21 21 22 22 22
25 25 28 30 33 33 34 29 34 32 29 28 27 28 28 28 28 28 27 26 26 26 25 25 24 24 24 23 24 24 24 24 24 24 24 24 24 24 23 23 22 22 23 23 22 22 22 22 22
27 29 29 31 32 35 34 33 33 32 30 30 29 30 29 29 29 29 29 27 26 26 26 26 25 25 24 25 25 24 24 24 24 24 25 24 24 24 24 23 23 22 21 22 22 22 22 22 23
27 31 31 33 32 35 36 34 34 33 33 32 30 30 30 29 30 30 30 29 27 26 27 27 27 26 26 25 25 25 25 25 25 24 25 25 25 24 25 24 23 22 20 22 22 23 23 22 22
35 37 36 36 35 36 35 33 33 32 33 32 31 29 29 30 30 30 30 30 28 27 27 27 27 26 26 26 25 26 26 26 26 26 26 26 25 25 25 23 22 21 23 22 23 23 23 23 23
32 36 35 35 34 32 35 33 32 32 33 32 31 30 31 30 30 31 31 31 30 28 29 28 27 27 26 26 26 27 27 27 26 27 26 25 25 25 25 24 24 24 23 23 22 22 22 23 23
29 31 32 33 32 30 30 30 32 32 32 31 31 31 31 31 33 33 33 32 31 30 28 28 28 27 26 26 26 27 27 27 27 26 26 26 25 25 25 25 25 24 24 23 22 22 22 22 23
33 31 33 32 31 29 28 27 28 33 32 31 31 31 31 30 31 33 33 33 31 30 29 28 27 27 26 26 26 27 27 27 27 27 26 26 26 25 25 25 25 24 24 23 22 22 22 22 22
32 34 35 29 28 28 29 26 27 31 33 32 32 31 30 30 30 33 33 32 31 30 29 29 28 27 27 26 26 27 26 27 28 27 26 27 27 26 26 25 25 25 25 24 23 23 22 23 23
31 31 34 31 29 28 26 24 25 29 34 33 32 31 31 31 31 33 33 32 30 30 29 29 29 27 27 26 27 26 27 28 28 27 27 26 26 26 25 25 25 25 25 24 24 23 24 24 24
32 31 32 28 29 26 23 24 25 28 33 32 32 32 32 32 31 31 33 31 29 30 29 29 28 27 27 27 27 27 27 28 28 27 26 26 26 26 25 25 25 25 25 24 24 24 24 24 25
33 35 35 32 33 28 25 23 25 32 31 25 29 33 33 33 31 31 32 31 29 29 29 29 28 27 27 27 27 27 28 27 26 27 27 27 26 26 26 25 25 25 25 24 24 24 25 25 24
36 38 39 34 32 30 32 29 28 28 28 27 28 32 33 33 32 32 32 31 29 29 29 29 28 28 28 27 27 27 28 28 28 28 28 27 26 26 26 26 25 25 25 25 25 25 24 24 25
36 38 38 37 33 29 30 28 28 28 27 26 26 29 31 32 33 32 32 32 30 29 29 29 28 28 28 27 27 27 28 28 28 28 28 27 26 26 26 26 25 25 25 25 25 25 25 25 25
39 37 35 35 31 27 29 28 27 26 24 25 27 26 28 30 33 33 33 33 30 29 28 29 28 28 27 27 27 27 28 28 28 28 28 27 27 26 26 25 25 25 25 25 25 25 25 25 25
37 34 29 31 31 29 27 27 27 28 25 26 27 26 25 28 30 33 33 33 30 30 28 28 28 27 27 27 28 27 27 27 28 27 28 27 27 26 26 25 26 25 25 25 25 25 24 25 25
34 35 30 32 29 28 29 27 28 28 27 25 26 25 25 28 30 31 32 33 31 30 29 28 27 27 28 27 27 27 27 27 27 28 28 28 28 27 27 26 26 25 25 25 25 25 25 25 26
34 32 35 32 28 26 27 27 27 26 26 24 26 27 26 29 32 32 32 33 31 31 30 29 27 27 27 28 27 27 27 27 27 28 28 28 28 28 27 26 26 26 25 26 25 25 25 25 25
38 36 32 29 28 26 27 26 25 26 25 24 25 24 26 26 30 31 32 33 33 32 31 29 28 28 28 27 27 27 27 27 27 27 28 29 28 28 27 27 26 26 26 26 25 25 25 25 26
33 33 35 31 27 26 25 26 26 25 25 24 25 24 25 28 26 32 32 34 34 33 32 29 28 28 28 28 27 27 27 26 27 27 27 28 28 28 27 27 27 26 26 25 26 25 25 25 25
37 35 34 30 32 29 27 27 22 22 25 26 25 24 24 28 28 29 33 34 33 34 33 29 29 29 29 29 28 28 27 26 26 27 27 27 28 28 27 27 27 26 26 25 25 25 25 25 24
Height
780 781 783 784 801 791 789 790 765 775 774 765 767 778 794 797 797 824 812 818 821 825 829 831 834 836 839 839 841 841 842 842 842 844 846 847 847 846 846 847 848 851 851 852 851 851 851 852 855
780 780 779 783 801 804 796 771 778 771 771 766 772 781 792 809 799 809 813 817 821 824 830 833 835 838 840 842 842 845 845 845 845 845 847 848 850 851 850 850 850 852 853 853 853 852 853 854 857
780 781 784 789 792 799 796 770 773 767 762 766 774 776 792 810 810 813 814 818 823 823 829 832 837 840 841 844 845 846 847 847 846 847 848 850 853 853 853 853 854 854 855 855 856 856 855 856 858
778 781 784 796 778 768 767 762 758 767 771 768 773 800 798 806 809 813 816 820 823 828 830 834 837 840 843 846 847 847 849 849 848 849 850 852 855 856 856 856 857 856 857 858 858 858 858 857 858
779 787 805 802 771 759 753 748 751 773 780 781 782 808 808 809 810 815 818 821 825 829 833 836 840 842 845 847 848 849 849 848 850 850 854 855 857 858 858 857 857 857 856 856 857 859 860 859 858
787 794 806 800 773 759 759 744 756 771 781 783 793 804 811 811 814 817 819 822 826 828 835 839 841 843 845 848 848 850 850 850 851 853 855 856 858 859 858 857 856 858 856 856 856 858 859 860 860
790 805 809 784 778 771 759 746 762 776 789 792 788 807 811 811 812 816 821 824 827 831 835 839 841 844 846 848 848 849 849 851 852 855 856 856 857 857 857 858 858 859 859 859 858 857 857 858 860
793 799 802 788 784 788 755 753 754 776 797 784 783 808 813 807 811 818 822 825 829 832 836 839 842 844 846 847 849 849 849 851 853 855 855 855 856 857 858 858 858 857 858 859 860 861 859 858 860
798 811 813 794 783 774 754 767 762 764 781 783 779 790 799 805 810 819 824 826 829 833 836 839 840 842 844 846 848 849 848 852 853 855 855 855 857 859 859 858 858 858 859 860 860 860 859 857 858
807 815 795 767 770 768 759 764 762 770 777 791 791 798 803 807 810 817 821 824 827 830 834 836 838 840 843 844 846 847 849 851 853 855 855 857 858 859 858 856 858 861 862 863 861 861 859 857 857
791 798 774 766 759 757 759 777 759 770 789 786 796 797 801 805 809 813 817 817 822 825 831 834 837 840 841 843 844 846 848 851 853 854 854 856 857 857 858 858 861 860 858 860 859 861 858 858 856
790 771 771 763 758 754 759 758 764 767 780 778 786 791 796 801 804 806 811 815 820 824 827 831 834 837 840 842 844 846 848 850 852 853 854 856 856 855 857 858 859 860 857 856 857 857 859 855 856
786 762 763 754 755 752 747 760 764 770 770 775 784 791 794 797 801 805 806 811 817 822 825 828 832 836 839 842 844 845 847 850 852 853 855 856 857 858 858 857 857 859 847 854 853 854 856 855 856
745 743 751 749 748 749 758 764 763 773 770 778 783 792 793 795 797 802 806 808 815 820 823 828 831 834 838 841 844 846 847 849 850 852 854 854 855 857 857 857 855 856 854 854 852 851 854 855 856
742 755 753 752 755 763 751 778 778 769 772 781 785 785 788 793 796 797 802 805 811 817 821 825 829 833 837 841 844 845 847 848 850 851 852 852 853 853 854 855 851 850 850 850 852 851 853 853 855
769 769 781 759 758 768 768 798 773 766 774 784 786 786 786 786 790 794 799 803 808 813 818 824 828 832 835 839 843 845 846 848 848 850 851 852 852 853 854 852 851 850 850 850 849 849 852 853 854
763 783 779 778 762 772 781 802 786 767 772 780 782 784 786 788 790 793 798 803 807 811 816 821 826 829 834 839 842 844 846 847 848 848 850 850 851 853 852 852 851 849 848 849 847 848 850 851 853
779 773 762 791 787 788 784 802 791 773 767 772 775 779 784 787 790 792 797 802 807 812 817 821 824 828 832 838 842 843 846 846 846 846 848 849 849 850 852 853 851 850 848 848 847 848 849 850 852
764 783 772 770 778 784 813 818 808 787 766 770 772 775 779 782 786 790 796 801 805 810 815 820 824 829 833 837 840 841 843 844 844 844 845 847 847 848 850 851 850 850 848 848 848 848 847 847 849
757 776 773 783 770 794 830 815 801 781 770 770 774 770 772 777 782 787 792 799 803 809 814 819 824 829 832 836 837 839 842 842 843 845 846 846 846 847 849 849 848 848 848 848 848 847 846 846 847
756 758 754 771 769 797 810 824 808 767 769 788 783 765 763 771 778 783 788 794 800 805 810 816 822 826 830 834 836 839 840 842 842 843 844 845 846 846 846 846 847 847 847 846 846 847 847 847 848
761 726 731 755 775 806 767 815 794 783 785 782 778 767 762 766 773 776 783 790 795 800 806 812 817 823 828 831 834 836 837 839 840 840 841 842 843 844 844 845 846 846 845 845 846 848 849 849 849
747 723 734 739 765 789 792 812 802 787 794 796 788 766 763 762 769 774 778 783 788 794 801 808 813 817 823 828 830 832 834 836 837 837 839 840 841 842 843 844 845 845 845 845 846 847 849 849 849
717 731 740 742 768 823 805 810 816 804 807 787 778 779 775 762 764 769 772 777 786 791 797 803 810 813 819 824 828 830 832 833 835 834 835 838 840 841 842 842 843 843 844 845 845 845 846 846 847
730 757 805 805 803 826 806 816 810 789 787 772 765 780 780 768 764 766 770 774 783 789 795 800 804 809 813 819 823 825 827 829 831 832 833 836 837 839 840 841 841 842 843 844 844 844 844 843 843
749 753 800 815 825 827 805 830 799 784 776 770 760 773 783 774 762 762 766 770 777 784 790 796 800 804 809 813 817 820 823 826 828 829 831 832 833 834 836 837 838 839 841 842 842 842 841 841 841
749 769 738 782 800 832 824 812 788 783 792 770 753 765 780 771 755 757 761 767 772 778 785 790 795 800 804 808 813 816 819 822 824 825 827 828 831 830 833 834 835 836 838 839 840 840 840 841 841
727 727 777 781 831 848 828 823 821 799 815 801 791 784 771 764 753 751 755 762 767 772 779 784 790 794 799 804 809 813 817 820 823 824 825 826 829 830 831 833 834 835 835 835 837 839 839 840 840
749 758 748 760 795 834 848 831 805 802 795 795 776 762 764 757 762 752 752 757 761 768 775 780 786 792 796 800 804 809 814 818 822 823 824 825 828 830 829 830 832 832 831 832 833 834 836 837 840
723 742 745 788 790 790 808 826 800 796 796 777 774 769 757 748 757 755 748 753 757 762 768 774 781 786 790 795 800 805 810 814 818 821 822 825 826 827 828 828 828 830 831 831 831 832 832 834 837
Wind_Speed
7 3 3 3 2 3 13 12 14 14 9 15 15 10 10 11 5 4 24 19 19 18 17 18 16 15 14 16 16 16 17 17 19 19 17 17 17 19 19 18 18 17 17 16 16 15 15 15 15
6 3 4 2 2 3 2 13 16 14 12 20 22 18 10 6 9 13 15 23 22 22 18 20 17 16 16 15 16 15 15 16 17 18 16 16 15 16 16 17 16 15 14 13 14 14 15 13 14
5 6 1 3 1 5 6 18 18 17 16 14 12 14 8 11 13 19 18 26 23 25 18 20 18 18 16 14 15 15 14 14 15 17 15 15 13 13 13 14 13 13 12 12 13 13 13 12 11
1 6 2 2 7 10 10 15 20 16 22 20 17 13 8 12 16 21 32 30 25 15 21 21 20 17 15 13 14 14 13 13 15 14 14 13 12 10 10 12 11 10 10 9 10 10 11 10 10
5 2 3 3 10 8 5 14 17 23 18 23 22 14 13 17 26 37 32 24 24 21 20 20 18 17 15 13 13 12 13 14 12 13 12 11 10 9 8 9 8 8 9 8 8 8 9 8 10
4 2 3 3 12 13 11 15 23 23 22 21 24 16 7 33 34 32 29 26 26 23 21 20 18 16 14 13 13 13 11 12 11 11 11 11 8 8 7 8 8 7 7 7 6 6 7 5 6
5 3 3 2 4 12 3 14 15 24 22 13 17 19 12 26 34 35 29 31 23 23 22 19 18 16 15 14 13 13 12 10 10 9 9 9 7 8 8 7 6 6 5 5 4 5 5 4 3
4 3 7 4 12 0 12 16 23 25 15 22 19 10 16 21 32 37 35 29 28 23 22 21 20 19 16 14 12 12 12 9 10 8 8 7 7 7 6 6 6 6 6 6 4 2 3 2 1
2 1 3 5 4 4 12 13 13 19 17 7 6 22 22 29 26 37 31 31 28 24 23 24 20 17 15 14 13 11 10 9 8 7 6 6 7 6 7 5 8 7 6 7 6 5 3 2 3
1 4 5 5 2 5 13 9 14 13 14 21 22 23 30 25 26 30 26 28 26 29 26 23 21 19 16 13 12 11 10 10 8 6 2 2 4 7 12 10 7 9 6 7 7 6 5 5 1
3 7 5 8 11 6 10 13 5 15 23 25 23 21 24 28 26 25 26 32 30 31 28 27 23 23 20 15 11 13 12 10 7 5 2 4 8 13 9 8 6 8 7 9 11 9 10 8 3
4 4 8 6 7 8 11 13 5 18 25 25 25 21 23 21 21 24 24 29 29 28 27 28 28 23 21 16 13 12 12 11 11 7 5 5 5 5 8 9 13 10 2 10 14 12 9 10 7
19 14 16 11 15 10 11 13 15 21 23 23 24 23 21 16 21 27 27 30 33 32 27 27 25 27 21 19 13 11 11 14 10 14 8 8 2 4 8 8 6 2 3 13 13 11 13 13 10
21 12 11 4 4 8 13 14 14 17 17 20 17 23 20 19 23 25 24 27 33 34 32 25 25 23 19 17 6 13 14 12 15 14 6 2 6 3 4 6 7 8 11 13 10 14 13 10 10
16 13 9 10 3 6 2 13 14 19 17 14 13 8 15 22 27 22 29 25 32 36 29 35 26 22 18 13 5 7 7 5 15 9 7 5 5 5 2 4 7 4 7 4 9 11 12 11 7
10 6 5 10 7 9 3 5 13 18 19 17 14 11 8 6 17 21 27 30 33 31 33 29 22 19 13 11 8 11 5 2 14 10 11 7 5 4 3 6 6 5 2 2 6 9 9 8 7
7 6 4 7 10 5 6 3 6 14 18 17 17 13 11 8 11 17 24 25 29 33 34 27 25 22 16 13 7 13 5 6 11 6 11 6 6 1 2 2 5 4 7 7 7 9 8 9 7
5 2 16 12 3 15 9 6 11 12 19 18 17 14 11 10 8 21 19 22 29 30 28 23 25 22 20 17 8 8 10 13 7 6 10 2 1 2 1 3 5 4 8 10 9 8 6 7 7
15 16 14 19 15 12 9 14 25 18 19 18 16 16 13 12 18 25 23 24 36 30 25 22 17 27 24 19 14 11 11 10 10 10 10 7 2 5 3 5 3 7 8 8 6 5 6 7 6
16 17 22 19 22 17 16 22 25 25 11 17 16 19 18 15 16 20 28 26 34 33 27 24 20 26 23 15 16 13 8 11 12 12 12 9 3 2 0 5 7 4 7 8 8 7 9 9 8
16 9 7 23 11 25 22 4 11 9 13 13 13 18 20 19 20 18 21 29 34 35 31 26 25 25 20 15 14 12 8 10 13 15 11 6 4 4 1 2 6 4 4 8 6 6 7 6 6
5 6 8 12 9 6 7 3 4 4 2 21 21 15 15 17 20 19 22 28 32 35 34 31 27 25 21 21 16 15 15 10 11 11 10 8 7 6 3 3 4 2 7 5 6 7 4 2 3
6 6 5 7 4 6 5 4 5 6 8 8 10 5 10 11 22 19 23 30 37 38 38 35 31 27 23 26 21 13 13 10 11 13 10 14 11 9 7 6 5 5 4 4 6 3 2 4 2
5 7 9 7 6 4 2 2 5 4 4 9 4 6 10 9 19 20 28 32 36 36 35 38 36 32 26 23 24 15 16 17 8 13 20 16 13 13 12 7 7 5 5 5 8 5 4 1 1
6 4 5 5 4 2 7 6 7 2 2 11 20 11 13 10 8 20 18 24 35 35 34 37 40 36 31 28 25 22 18 17 12 13 17 15 15 15 17 13 11 9 9 8 6 5 5 4 3
7 4 4 4 4 6 4 2 5 6 1 11 22 17 17 13 9 10 13 24 34 35 35 35 37 36 35 30 29 26 25 18 16 14 14 14 13 22 20 17 11 12 10 9 8 7 9 6 5
11 5 6 7 7 5 1 3 11 12 13 22 26 17 17 18 10 10 10 24 29 35 34 36 37 35 36 36 30 27 25 26 20 20 18 16 9 15 22 21 16 12 11 12 10 11 11 11 7
4 3 6 4 5 3 3 5 6 2 6 2 10 7 9 11 7 8 8 20 27 36 34 40 41 39 36 33 31 30 28 27 25 20 22 20 12 15 20 21 19 16 15 12 13 12 13 11 9
5 5 4 2 8 5 4 4 8 7 3 12 15 25 9 15 7 9 9 14 29 30 31 38 36 35 33 32 30 29 29 27 27 24 24 22 20 19 20 19 18 22 20 19 15 17 15 16 11
6 8 5 4 3 5 5 3 16 12 9 8 4 14 18 18 9 11 14 19 27 31 32 36 35 37 34 33 30 30 30 29 28 31 27 23 23 23 21 22 22 20 22 22 21 18 16 18 15
Wind_Direction
163 167 240 259 282 217 92 105 104 104 73 76 81 82 104 32 152 158 145 148 138 119 127 121 122 121 114 109 103 100 99 98 100 102 102 106 103 104 101 100 101 99 97 91 92 98 97 99 98
140 212 246 238 228 68 50 125 124 108 125 113 103 93 68 69 76 116 131 154 139 127 132 131 128 130 118 112 110 103 98 103 105 110 114 111 109 105 104 105 103 105 103 98 92 101 103 101 100
188 197 250 282 244 129 112 106 111 122 128 112 108 84 73 111 108 144 156 152 140 132 136 139 140 131 121 121 117 110 108 106 107 112 116 119 116 110 105 102 103 103 102 100 96 99 99 98 91
238 2 336 239 117 115 122 126 136 139 105 100 99 77 82 143 139 145 143 137 132 131 148 146 145 138 131 128 120 117 117 111 112 111 118 122 121 118 113 108 105 101 101 99 103 103 98 95 93
77 55 45 272 100 111 80 134 118 99 87 91 100 115 121 111 140 146 143 142 134 143 137 143 147 144 140 135 131 128 127 125 121 119 121 118 124 126 126 121 119 114 111 114 110 111 103 98 99
74 66 343 319 82 91 166 95 102 100 101 109 103 116 103 137 141 154 147 148 150 143 146 142 147 146 142 141 133 133 128 132 129 134 125 123 134 140 145 147 138 137 144 141 134 119 112 105 96
94 46 260 23 115 56 42 111 124 117 121 118 118 116 139 149 153 154 154 146 151 147 149 150 149 149 149 148 147 147 139 145 143 145 141 140 161 174 174 172 158 162 170 171 150 144 133 122 96
86 350 337 346 96 133 65 54 103 113 152 126 125 139 152 158 148 153 149 145 143 149 153 155 158 161 158 149 157 152 148 156 161 160 160 154 177 189 183 190 180 186 197 194 196 191 138 130 108
6 127 251 280 55 168 92 98 121 128 135 160 111 143 141 150 153 144 147 142 147 155 160 167 164 158 154 160 164 167 156 173 168 169 176 185 205 214 227 223 214 215 223 209 206 188 206 161 169
154 299 242 262 174 149 122 130 134 136 135 111 115 133 146 156 145 144 145 150 159 163 174 174 167 163 162 171 176 182 177 179 162 168 194 251 232 240 244 246 249 228 232 241 233 216 200 218 234
195 195 231 274 241 215 119 139 211 116 123 137 144 153 153 157 162 164 170 162 162 172 177 183 177 175 173 180 177 184 183 178 177 193 231 302 308 251 244 239 252 228 218 226 228 229 201 222 186
225 232 202 265 267 214 144 159 165 132 143 145 149 158 161 165 167 173 172 166 162 172 179 184 184 180 179 187 190 190 191 197 210 220 203 240 225 217 214 254 240 229 327 257 255 215 198 200 229
226 180 206 232 217 206 124 115 103 122 137 140 151 158 167 171 177 175 185 167 164 172 177 176 185 183 186 191 190 214 218 215 216 230 216 210 224 317 316 343 332 221 229 260 197 191 189 185 188
186 150 142 138 244 133 118 128 114 124 128 137 150 167 175 178 180 179 191 157 164 174 182 175 156 175 182 190 192 222 233 240 200 199 189 200 235 306 324 14 356 321 250 239 212 186 193 175 176
349 134 148 173 139 34 38 116 127 132 136 143 154 172 178 189 185 180 180 154 160 172 168 168 165 154 169 180 200 164 186 189 168 191 181 201 210 326 310 282 358 281 260 266 196 197 189 191 203
183 269 148 140 99 24 46 92 143 142 145 155 163 185 184 186 159 160 153 156 159 159 157 161 173 179 162 183 220 202 199 253 194 182 185 193 220 261 307 305 320 356 18 31 141 166 179 190 193
225 178 216 111 110 106 57 222 249 156 156 166 172 180 176 179 143 148 158 164 160 154 156 161 168 165 170 183 218 197 222 218 174 194 213 301 208 231 331 309 359 5 70 69 102 118 136 154 160
288 334 164 140 116 53 5 317 282 231 168 173 172 163 166 166 159 158 159 151 153 151 156 160 168 169 169 176 187 208 236 213 196 249 202 147 53 199 257 19 63 95 74 91 96 116 155 156 157
254 254 226 127 150 92 326 311 295 284 183 175 169 164 163 167 157 165 169 157 152 154 152 161 157 168 170 174 189 222 238 203 226 205 199 186 122 71 56 83 90 129 97 110 119 113 107 143 145
276 292 89 138 162 97 139 267 277 266 190 173 177 170 166 169 159 166 175 154 151 158 161 162 163 164 169 175 196 213 253 225 239 215 172 175 163 141 120 134 108 117 100 123 107 100 105 109 169
263 217 124 156 186 109 148 167 290 223 111 127 246 178 168 172 163 167 180 156 153 159 165 166 170 167 170 186 211 220 215 190 177 161 183 208 189 165 184 112 119 128 141 121 117 110 122 140 183
45 34 6 154 150 146 216 208 181 248 338 163 236 187 173 170 169 170 178 161 158 166 171 174 178 186 195 192 210 214 204 193 197 205 206 210 191 181 198 142 150 160 141 134 129 113 99 109 68
273 3 346 297 79 99 15 80 314 30 7 0 325 172 181 175 169 176 177 165 168 168 174 178 181 187 193 199 213 226 203 214 231 228 215 190 199 189 189 174 161 151 158 141 133 128 88 44 88
355 318 293 271 136 56 93 46 350 53 305 301 285 342 289 197 169 179 179 173 169 171 172 178 183 188 192 198 206 210 213 222 239 200 178 196 205 188 185 181 171 180 168 164 166 173 174 252 22
293 301 316 356 62 181 151 45 226 213 284 312 299 297 293 222 197 180 183 176 167 171 173 178 183 189 190 197 204 207 213 223 225 203 199 193 211 202 189 190 184 194 188 185 186 192 171 199 190
286 255 170 325 146 138 32 325 270 34 115 249 268 270 270 245 193 170 184 178 167 174 174 179 184 188 193 197 204 210 212 215 220 213 209 216 237 217 188 193 188 194 192 189 212 200 200 209 196
271 323 256 91 32 69 188 250 307 102 157 250 247 256 257 230 176 174 169 179 164 175 179 178 183 190 194 199 201 209 215 216 216 215 218 227 254 227 195 194 191 195 197 202 214 209 225 200 209
232 273 348 3 127 82 310 284 251 21 211 145 63 72 2 347 181 169 179 169 165 176 176 177 185 189 194 200 203 210 217 219 220 223 220 225 226 194 191 195 197 199 214 214 209 214 223 218 200
281 286 268 179 132 142 173 279 349 292 87 139 131 109 275 276 288 198 194 188 173 170 175 175 180 185 190 197 200 207 217 223 221 222 227 227 224 216 207 206 208 207 213 220 216 219 215 224 199
225 221 203 126 350 93 126 340 341 351 110 90 130 170 222 224 220 253 193 207 172 180 174 172 178 186 194 195 200 208 215 219 223 225 226 229 228 225 223 219 219 220 220 224 226 222 226 216 206